GW3623 Weather Reports


time (UTC)temp
C
wind
direction
speed
KPH
gust
KPH
rain 1hr
cm
rain 24hr
cm
rain mn
cm
humidity
%
barometer
mb
20260906191630 26 81 3.2 4.8 0.00 0.00 0.00 73 1014.6
20260906191128 26 113 0.0 1.6 0.00 0.00 0.00 76 1014.7
20260906190623 26 173 0.0 1.6 0.00 0.00 0.00 76 1014.7
20260906190118 26 130 0.0 1.6 0.00 0.00 0.00 78 1014.7
20260906185616 26 87 4.8 4.8 0.00 0.00 0.00 78 1014.9
20260906185116 26 63 4.8 4.8 0.00 0.00 0.00 77 1014.7
20260906184610 26 90 3.2 3.2 0.00 0.00 0.00 77 1014.8
20260906184106 26 107 1.6 1.6 0.00 0.00 0.00 80 1014.8
20260906183602 26 214 0.0 0.0 0.00 0.00 0.00 77 1014.9
20260906183058 26 264 1.6 1.6 0.00 0.00 0.00 76 1014.9
20260906182552 25 87 1.6 1.6 0.00 0.00 0.00 81 1014.8
20260906182049 25 91 1.6 1.6 0.00 0.00 0.00 79 1015.0
20260906181544 25 151 1.6 1.6 0.00 0.00 0.00 79 1015.0
20260906181039 25 127 1.6 3.2 0.00 0.00 0.00 77 1014.9
20260906180533 26 88 4.8 6.4 0.00 0.00 0.00 79 1015.0
20260906180032 26 81 3.2 4.8 0.00 0.00 0.00 77 1015.3
20260906175527 25 74 3.2 6.4 0.00 0.00 0.00 81 1015.3
20260906175026 25 117 0.0 0.0 0.00 0.00 0.00 83 1015.4
20260906174524 25 197 0.0 0.0 0.00 0.00 0.00 83 1015.5
20260906174020 25 83 0.0 0.0 0.00 0.00 0.00 83 1015.6
20260906173514 25 303 0.0 0.0 0.00 0.00 0.00 81 1015.7
20260906173010 25 27 0.0 1.6 0.00 0.00 0.00 81 1015.7
20260906172459 25 57 1.6 1.6 0.00 0.00 0.00 78 1015.8
20260906171954 25 158 0.0 1.6 0.00 0.00 0.00 81 1016.0
20260906171449 25 68 0.0 0.0 0.00 0.00 0.00 79 1016.0
20260906170945 26 186 0.0 1.6 0.00 0.00 0.00 78 1016.0
20260906170441 26 210 0.0 0.0 0.00 0.00 0.00 77 1016.1
20260906165937 26 98 3.2 3.2 0.00 0.00 0.00 79 1016.1
20260906165436 26 68 3.2 3.2 0.00 0.00 0.00 78 1016.1
20260906164931 25 48 0.0 0.0 0.00 0.00 0.00 80 1015.9
20260906164430 25 87 4.8 4.8 0.00 0.00 0.00 81 1015.8
20260906163926 25 56 0.0 0.0 0.00 0.00 0.00 80 1016.1
20260906163422 25 92 1.6 1.6 0.00 0.00 0.00 81 1016.3
20260906162920 25 57 0.0 1.6 0.00 0.00 0.00 81 1016.0
20260906162414 25 83 1.6 1.6 0.00 0.00 0.00 82 1016.0
20260906161909 24 300 0.0 1.6 0.00 0.00 0.00 83 1016.0
20260906161408 24 236 0.0 0.0 0.00 0.00 0.00 85 1016.0
20260906160907 25 94 0.0 0.0 0.00 0.00 0.00 85 1015.9
20260906160401 24 221 0.0 0.0 0.00 0.00 0.00 85 1015.8
20260906155859 24 180 0.0 0.0 0.00 0.00 0.00 83 1015.8
20260906155353 24 90 0.0 1.6 0.00 0.00 0.00 81 1015.7
20260906154850 24 262 0.0 0.0 0.00 0.00 0.00 80 1015.8
20260906154349 25 309 0.0 0.0 0.00 0.00 0.00 80 1015.8
20260906153847 24 79 1.6 1.6 0.00 0.00 0.00 82 1015.9
20260906153341 24 103 1.6 1.6 0.00 0.00 0.00 81 1015.9
20260906152837 23 172 0.0 0.0 0.00 0.00 0.00 82 1015.8
20260906152337 22 86 0.0 0.0 0.00 0.00 0.00 84 1015.8
20260906151837 23 150 0.0 0.0 0.00 0.00 0.00 84 1015.9
20260906151332 22 75 0.0 1.6 0.00 0.00 0.00 83 1015.8
20260906150827 22 230 0.0 0.0 0.00 0.00 0.00 84 1015.8
20260906150323 22 138 0.0 0.0 0.00 0.00 0.00 85 1015.9
20260906145822 22 122 0.0 0.0 0.00 0.00 0.00 84 1015.8
20260906145320 22 99 0.0 0.0 0.00 0.00 0.00 81 1015.9
20260906144816 21 109 0.0 0.0 0.00 0.00 0.00 86 1015.8
20260906144311 21 101 0.0 0.0 0.00 0.00 0.00 86 1015.7
20260906143810 21 131 0.0 1.6 0.00 0.00 0.00 87 1015.9
20260906143307 20 155 0.0 0.0 0.00 0.00 0.00 89 1015.4
20260906142803 20 79 0.0 1.6 0.00 0.00 0.00 88 1015.9
20260906142258 20 108 0.0 0.0 0.00 0.00 0.00 90 1015.7
20260906141756 18 111 0.0 0.0 0.00 0.00 0.00 91 1015.9
20260906141251 18 121 0.0 0.0 0.00 0.00 0.00 93 1016.0
20260906140749 18 85 0.0 0.0 0.00 0.00 0.00 93 1016.2
20260906140240 17 100 0.0 0.0 0.00 0.00 0.00 97 1016.1
20260906135737 16 121 0.0 0.0 0.00 0.00 0.00 98 1016.2
20260906135233 16 106 0.0 0.0 0.00 0.00 0.00 97 1016.2
20260906134728 16 88 0.0 0.0 0.00 0.00 0.00 97 1016.2
20260906134223 16 118 0.0 0.0 0.00 0.00 0.00 99 1016.2
20260906133719 16 118 0.0 0.0 0.00 0.00 0.00 99 1016.4
20260906133214 15 168 0.0 0.0 0.00 0.00 0.00 99 1016.4
20260906132709 15 135 0.0 0.0 0.00 0.00 0.00 99 1016.3
20260906132204 15 98 0.0 0.0 0.00 0.00 0.00 99 1016.2
20260906131659 15 82 1.6 1.6 0.00 0.00 0.00 99 1016.3
20260906131149 15 169 0.0 0.0 0.00 0.00 0.00 99 1016.3
20260906130644 15 169 0.0 0.0 0.00 0.00 0.00 99 1016.3
20260906130139 15 142 0.0 0.0 0.00 0.00 0.00 99 1016.1
20260906125636 15 145 0.0 0.0 0.00 0.00 0.00 99 1016.1
20260906125130 15 114 0.0 0.0 0.00 0.00 0.00 99 1015.6
20260906124626 15 88 0.0 0.0 0.00 0.00 0.00 99 1015.7
20260906124121 15 112 0.0 0.0 0.00 0.00 0.00 99 1015.8
20260906123620 14 79 0.0 0.0 0.00 0.00 0.00 99 1015.7
20260906123115 14 79 0.0 0.0 0.00 0.00 0.00 99 1015.7
20260906122614 14 79 0.0 0.0 0.00 0.00 0.00 99 1015.9
20260906122110 14 79 0.0 0.0 0.00 0.00 0.00 99 1015.7
20260906121606 14 79 0.0 0.0 0.00 0.00 0.00 99 1015.9
20260906121103 13 79 0.0 0.0 0.00 0.00 0.00 99 1015.7
20260906120557 14 79 0.0 0.0 0.00 0.00 0.00 99 1015.7
20260906120055 13 79 0.0 0.0 0.00 0.00 0.00 99 1015.5
20260906115554 13 79 0.0 0.0 0.00 0.00 0.00 99 1015.6
20260906115050 13 79 0.0 0.0 0.00 0.00 0.00 99 1015.5
20260906114544 13 79 0.0 0.0 0.00 0.00 0.00 99 1015.7
20260906114040 13 79 0.0 0.0 0.00 0.00 0.00 99 1015.4
20260906113538 13 8 0.0 0.0 0.00 0.00 0.00 99 1015.5
20260906113034 12 52 0.0 0.0 0.00 0.00 0.00 99 1015.5
20260906112529 13 25 0.0 0.0 0.00 0.00 0.00 99 1015.4
20260906112025 13 1 0.0 0.0 0.00 0.00 0.00 99 1015.5
20260906111524 13 346 0.0 0.0 0.00 0.00 0.00 99 1015.7
20260906111020 13 344 0.0 0.0 0.00 0.00 0.00 99 1015.5
20260906110514 13 344 0.0 0.0 0.00 0.00 0.00 99 1015.6
20260906110013 13 344 0.0 0.0 0.00 0.00 0.00 99 1015.5
20260906105509 13 344 0.0 0.0 0.00 0.00 0.00 99 1015.0
20260906105004 13 344 0.0 0.0 0.00 0.00 0.00 99 1015.0
20260906104458 13 344 0.0 0.0 0.00 0.00 0.00 99 1014.6
20260906103957 13 91 0.0 0.0 0.00 0.00 0.00 99 1014.7
20260906103456 13 101 0.0 0.0 0.00 0.00 0.00 99 1014.7
20260906102951 14 108 0.0 0.0 0.00 0.00 0.00 99 1014.4
20260906102450 14 111 0.0 0.0 0.00 0.00 0.00 99 1014.4
20260906101944 14 114 0.0 0.0 0.00 0.00 0.00 99 1014.5
20260906101440 13 113 0.0 0.0 0.00 0.00 0.00 99 1014.5
20260906100935 14 117 0.0 0.0 0.00 0.00 0.00 99 1014.6
20260906100430 14 111 0.0 0.0 0.00 0.00 0.00 99 1014.5
20260906095930 13 106 0.0 0.0 0.00 0.00 0.00 99 1014.6
20260906095426 13 106 0.0 0.0 0.00 0.00 0.00 99 1014.6
20260906094926 13 100 0.0 0.0 0.00 0.00 0.00 99 1014.7
20260906094415 13 106 0.0 0.0 0.00 0.00 0.00 99 1014.6
20260906093911 13 106 0.0 0.0 0.00 0.00 0.00 99 1014.8
20260906093407 13 120 0.0 0.0 0.00 0.00 0.00 99 1014.7
20260906092901 13 122 0.0 0.0 0.00 0.00 0.00 99 1015.0
20260906092400 13 37 0.0 0.0 0.00 0.00 0.00 99 1014.8
20260906091855 13 18 0.0 0.0 0.00 0.00 0.00 99 1015.0
20260906091352 13 18 0.0 0.0 0.00 0.00 0.00 99 1015.0
20260906090848 13 18 0.0 0.0 0.00 0.00 0.00 99 1014.8
20260906090347 13 16 0.0 0.0 0.00 0.00 0.00 99 1015.2
20260906085842 13 18 0.0 0.0 0.00 0.00 0.00 99 1014.9
20260906085336 13 16 0.0 0.0 0.00 0.00 0.00 99 1014.9
20260906084830 13 89 0.0 0.0 0.00 0.00 0.00 99 1015.0
20260906084330 14 154 0.0 0.0 0.00 0.00 0.00 99 1015.0
20260906083825 14 130 0.0 0.0 0.00 0.00 0.00 99 1014.6
20260906083320 14 92 0.0 0.0 0.00 0.00 0.00 99 1014.8
20260906082815 14 88 0.0 0.0 0.00 0.00 0.00 99 1015.0
20260906082310 14 88 0.0 0.0 0.00 0.00 0.00 99 1015.0
20260906081806 15 88 0.0 0.0 0.00 0.00 0.00 99 1014.9
20260906081302 14 87 0.0 0.0 0.00 0.00 0.00 99 1014.9
20260906080758 15 87 0.0 0.0 0.00 0.00 0.00 99 1014.9
20260906080253 15 87 0.0 0.0 0.00 0.00 0.00 99 1014.9
20260906075747 15 91 0.0 0.0 0.00 0.00 0.00 99 1014.9
20260906075242 15 94 0.0 0.0 0.00 0.00 0.00 99 1014.9
20260906074737 15 91 0.0 0.0 0.00 0.00 0.00 99 1014.8
20260906074236 15 87 0.0 0.0 0.00 0.00 0.00 99 1014.9
20260906073736 15 96 0.0 0.0 0.00 0.00 0.00 99 1014.9
20260906073231 15 94 0.0 0.0 0.00 0.00 0.00 99 1015.0
20260906072727 15 100 0.0 1.6 0.00 0.00 0.00 99 1015.2
20260906072222 15 64 0.0 0.0 0.00 0.00 0.00 99 1015.4
20260906071718 15 59 0.0 0.0 0.00 0.00 0.00 99 1015.6
20260906071218 15 60 0.0 0.0 0.00 0.00 0.00 99 1015.4
20260906070714 15 65 0.0 0.0 0.00 0.00 0.00 99 1015.6
20260906070210 15 96 0.0 0.0 0.00 0.00 0.00 99 1015.4
20260906065704 15 64 0.0 0.0 0.00 0.00 0.00 99 1015.5
20260906065159 15 28 0.0 0.0 0.00 0.00 0.00 99 1015.8
20260906064655 15 50 0.0 0.0 0.00 0.00 0.00 99 1015.6
20260906064150 15 50 0.0 0.0 0.00 0.00 0.00 99 1015.6
20260906063645 15 50 0.0 0.0 0.00 0.00 0.00 99 1015.5
20260906063141 15 34 0.0 0.0 0.00 0.00 0.00 99 1015.6
20260906062637 15 19 0.0 0.0 0.00 0.00 0.00 99 1015.8
20260906062135 15 20 0.0 1.6 0.00 0.00 0.00 99 1015.8
20260906061631 15 60 0.0 0.0 0.00 0.00 0.00 99 1015.8
20260906061131 15 33 0.0 0.0 0.00 0.00 0.00 99 1016.1
20260906060627 16 33 0.0 0.0 0.00 0.00 0.00 99 1016.0
20260906060120 16 358 0.0 0.0 0.00 0.00 0.00 99 1016.0
20260906055615 16 356 0.0 0.0 0.00 0.00 0.00 99 1016.0
20260906055110 16 356 0.0 0.0 0.00 0.00 0.00 99 1015.9
20260906054610 16 32 0.0 0.0 0.00 0.00 0.00 99 1015.7
20260906054100 16 102 0.0 0.0 0.00 0.00 0.00 99 1015.7
20260906053556 16 102 0.0 0.0 0.00 0.00 0.00 99 1015.6
20260906053052 16 102 0.0 0.0 0.00 0.00 0.00 99 1015.7
20260906052547 16 99 0.0 0.0 0.00 0.00 0.00 99 1015.7
20260906052044 16 118 0.0 0.0 0.00 0.00 0.00 99 1015.9
20260906051539 16 120 0.0 0.0 0.00 0.00 0.00 99 1015.8
20260906051034 16 102 0.0 0.0 0.00 0.00 0.00 99 1015.6
20260906050529 17 116 0.0 0.0 0.00 0.00 0.00 99 1015.8
20260906050024 17 119 0.0 0.0 0.00 0.03 0.03 99 1015.5
20260906045522 17 119 0.0 0.0 0.00 0.03 0.03 99 1015.5
20260906045019 17 125 0.0 0.0 0.00 0.03 0.03 99 1015.3
20260906044514 17 127 1.6 1.6 0.00 0.03 0.03 99 1015.2
20260906044010 17 100 1.6 1.6 0.00 0.03 0.03 99 1015.4
20260906043505 17 121 1.6 1.6 0.00 0.03 0.03 99 1015.4
20260906043001 17 110 1.6 1.6 0.00 0.03 0.03 99 1015.5
20260906042500 17 125 1.6 1.6 0.00 0.03 0.03 99 1015.7
20260906041959 17 119 1.6 1.6 0.00 0.03 0.03 99 1015.7
20260906041456 17 80 0.0 0.0 0.00 0.03 0.03 99 1015.7
20260906040955 17 87 0.0 0.0 0.00 0.03 0.03 99 1015.6
20260906040450 17 113 0.0 0.0 0.00 0.03 0.03 99 1015.6
20260906035940 17 92 1.6 1.6 0.00 0.03 0.03 99 1015.6
20260906035435 17 101 0.0 0.0 0.00 0.03 0.03 99 1015.8
20260906034930 17 98 0.0 0.0 0.00 0.03 0.03 99 1015.6
20260906034425 17 127 0.0 0.0 0.00 0.03 0.03 99 1015.5
20260906033920 16 119 0.0 0.0 0.00 0.03 0.03 99 1015.7
20260906033415 16 125 0.0 0.0 0.00 0.03 0.03 99 1015.8
20260906032911 17 136 0.0 0.0 0.00 0.03 0.03 99 1015.7
20260906032407 17 106 0.0 0.0 0.00 0.03 0.03 99 1015.9
20260906031906 17 117 0.0 0.0 0.00 0.03 0.03 99 1015.9
20260906031402 17 114 0.0 0.0 0.00 0.03 0.03 99 1015.8
20260906030852 17 118 0.0 0.0 0.00 0.03 0.03 99 1015.7
20260906030346 17 120 0.0 0.0 0.00 0.03 0.03 99 1015.6
20260906025841 17 106 0.0 0.0 0.00 0.03 0.03 99 1015.5
20260906025335 17 106 0.0 0.0 0.00 0.03 0.03 99 1015.7
20260906024834 17 112 0.0 0.0 0.00 0.03 0.03 99 1015.7
20260906024333 17 76 0.0 0.0 0.00 0.03 0.03 99 1015.6
20260906023829 16 75 0.0 0.0 0.00 0.03 0.03 99 1015.6
20260906023324 16 72 0.0 0.0 0.00 0.03 0.03 99 1015.4
20260906022819 17 33 0.0 0.0 0.00 0.03 0.03 99 1015.7
20260906022314 17 18 0.0 0.0 0.00 0.03 0.03 99 1015.5
20260906021810 17 335 0.0 0.0 0.00 0.03 0.03 99 1015.3
20260906021309 17 346 0.0 0.0 0.00 0.03 0.03 99 1015.0
20260906020804 17 346 0.0 0.0 0.00 0.03 0.03 99 1014.7
20260906020258 17 346 0.0 0.0 0.00 0.03 0.03 99 1014.7
20260906015753 17 346 0.0 0.0 0.00 0.03 0.03 99 1014.5
20260906015251 17 346 0.0 0.0 0.00 0.03 0.03 99 1014.6
20260906014746 17 341 0.0 0.0 0.00 0.03 0.03 99 1014.4
20260906014242 17 324 0.0 0.0 0.00 0.03 0.03 99 1014.5
20260906013738 17 19 0.0 0.0 0.00 0.03 0.03 99 1014.2
20260906013237 17 22 0.0 0.0 0.00 0.03 0.03 99 1014.3
20260906012733 17 7 0.0 0.0 0.00 0.03 0.03 99 1014.1
20260906012228 17 8 0.0 0.0 0.00 0.03 0.03 99 1014.2
20260906011723 18 7 0.0 0.0 0.00 0.03 0.03 99 1014.2
20260906011222 18 5 0.0 0.0 0.00 0.03 0.03 99 1014.0
20260906010719 18 100 0.0 0.0 0.00 0.03 0.03 98 1014.0
20260906010215 18 100 0.0 0.0 0.00 0.03 0.03 98 1014.0
20260906005714 18 101 0.0 0.0 0.00 0.03 0.03 98 1014.0
20260906005208 18 111 0.0 0.0 0.00 0.03 0.03 98 1013.9
20260906004707 18 103 0.0 0.0 0.00 0.03 0.03 98 1014.0
20260906004202 18 99 0.0 0.0 0.00 0.03 0.03 98 1014.0
20260906003652 19 99 0.0 0.0 0.00 0.03 0.03 97 1014.1
20260906003147 19 99 0.0 0.0 0.00 0.03 0.03 97 1013.9
20260906002641 19 98 0.0 0.0 0.00 0.03 0.03 97 1013.9
20260906002136 19 97 0.0 0.0 0.00 0.03 0.03 97 1013.9
20260906001632 19 105 0.0 0.0 0.00 0.03 0.03 96 1014.1
20260906001131 20 105 0.0 0.0 0.00 0.03 0.03 95 1014.0
20260906000627 20 106 0.0 0.0 0.00 0.03 0.03 95 1014.1
20260906000123 20 107 0.0 1.6 0.00 0.03 0.03 94 1013.8
20260905235621 20 135 0.0 0.0 0.00 0.03 0.03 93 1014.1
20260905235117 20 139 0.0 0.0 0.00 0.03 0.03 92 1014.3
20260905234612 20 130 0.0 1.6 0.00 0.03 0.03 91 1014.2
20260905234108 20 101 3.2 3.2 0.00 0.03 0.03 90 1014.2
20260905233607 21 87 1.6 1.6 0.00 0.03 0.03 89 1014.2
20260905233102 21 91 1.6 1.6 0.00 0.03 0.03 90 1014.2
20260905232557 21 136 0.0 0.0 0.00 0.03 0.03 89 1014.4
20260905232053 21 111 1.6 1.6 0.00 0.03 0.03 88 1014.4
20260905231548 20 103 1.6 1.6 0.00 0.03 0.03 89 1014.5
20260905231044 21 152 0.0 0.0 0.00 0.03 0.03 90 1014.4
20260905230543 21 139 0.0 1.6 0.00 0.03 0.03 88 1014.4
20260905230042 21 91 1.6 3.2 0.00 0.03 0.03 89 1014.2
20260905225537 21 91 1.6 1.6 0.00 0.03 0.03 88 1014.0
20260905225032 20 101 0.0 0.0 0.00 0.03 0.03 89 1013.8
20260905224527 20 23 1.6 1.6 0.00 0.03 0.03 90 1013.6
20260905224026 20 81 1.6 3.2 0.00 0.03 0.03 90 1013.6
20260905223525 20 139 1.6 1.6 0.00 0.03 0.03 90 1013.8
20260905223020 20 124 1.6 1.6 0.00 0.03 0.03 90 1013.9
20260905222520 20 132 0.0 1.6 0.00 0.03 0.03 90 1014.0
20260905222015 20 98 1.6 3.2 0.00 0.03 0.03 90 1014.0
20260905221511 20 133 1.6 1.6 0.00 0.03 0.03 90 1014.1
20260905221007 20 129 1.6 1.6 0.00 0.03 0.03 90 1014.3
20260905220503 20 82 3.2 3.2 0.00 0.03 0.03 91 1014.1
20260905220002 20 102 3.2 3.2 0.00 0.03 0.03 89 1014.2
20260905215457 20 67 3.2 4.8 0.00 0.03 0.03 88 1014.3
20260905214954 20 79 0.0 1.6 0.00 0.03 0.03 90 1014.5
20260905214449 20 90 0.0 1.6 0.00 0.03 0.03 90 1014.5
20260905213943 20 92 3.2 3.2 0.00 0.03 0.03 90 1014.5
20260905213439 20 59 1.6 3.2 0.00 0.03 0.03 89 1014.8
20260905212934 20 88 4.8 4.8 0.00 0.03 0.03 88 1014.6
20260905212429 20 83 1.6 3.2 0.00 0.03 0.03 89 1014.4
20260905211928 20 127 1.6 1.6 0.00 0.03 0.03 91 1014.6
20260905211424 20 102 0.0 1.6 0.00 0.03 0.03 91 1015.0
20260905210920 20 130 1.6 1.6 0.00 0.03 0.03 90 1015.0
20260905210415 20 107 1.6 1.6 0.00 0.03 0.03 90 1015.2
20260905205914 20 150 0.0 0.0 0.00 0.03 0.03 89 1015.4
20260905205409 20 81 0.0 0.0 0.00 0.03 0.03 88 1015.6
20260905204907 20 5 1.6 1.6 0.00 0.03 0.03 88 1015.5
20260905204404 20 21 0.0 0.0 0.00 0.03 0.03 89 1015.6
20260905203903 20 102 0.0 0.0 0.00 0.03 0.03 88 1015.7
20260905203358 20 104 1.6 1.6 0.00 0.03 0.03 88 1015.7
20260905202848 20 28 0.0 0.0 0.00 0.03 0.03 89 1015.8
20260905202342 20 22 0.0 0.0 0.00 0.03 0.03 91 1015.8
20260905201838 20 7 0.0 0.0 0.00 0.03 0.03 91 1015.8
20260905201334 20 317 0.0 0.0 0.00 0.03 0.03 90 1016.0
20260905200828 20 340 0.0 0.0 0.00 0.03 0.03 90 1016.3
20260905200326 20 21 0.0 1.6 0.00 0.03 0.03 90 1016.2
20260905195822 20 334 0.0 0.0 0.00 0.03 0.03 90 1016.1
20260905195317 20 294 0.0 0.0 0.00 0.03 0.03 91 1016.1
20260905194813 20 293 0.0 0.0 0.00 0.03 0.03 93 1016.3
20260905194312 20 293 0.0 0.0 0.00 0.03 0.03 92 1016.1
20260905193811 20 305 0.0 0.0 0.00 0.03 0.03 92 1016.1
20260905193307 20 41 0.0 0.0 0.00 0.03 0.03 91 1016.1
20260905192802 20 341 0.0 1.6 0.00 0.03 0.03 91 1016.0
20260905192258 20 113 0.0 0.0 0.00 0.03 0.03 93 1016.1
20260905191757 20 86 0.0 0.0 0.00 0.03 0.03 91 1016.2